Date,TemperatureHighF,TemperatureAvgF,TemperatureLowF,DewpointHighF,DewpointAvgF,DewpointLowF,HumidityHigh,HumidityAvg,HumidityLow,PressureMaxIn,PressureMinIn,WindSpeedMaxMPH,WindSpeedAvgMPH,GustSpeedMaxMPH,PrecipitationSumIn
2013-1-1,66.0,54.0,40.6,56.6,49.0,36.7,89,83,71,30.54,30.34,8,0,8,0.00
2013-1-2,62.8,58.0,53.1,60.2,54.3,48.5,92,87,80,30.45,30.30,9,0,9,0.00
2013-1-3,53.1,47.0,41.5,48.6,43.1,38.6,90,86,77,30.62,30.41,6,0,6,0.20
2013-1-4,49.3,41.8,35.2,40.3,36.9,32.1,90,82,68,30.68,30.59,6,0,6,0.00
2013-1-5,54.3,43.9,35.4,39.8,35.2,32.2,89,73,48,30.70,30.58,0,0,0,0.04
2013-1-6,48.4,44.9,41.4,43.9,41.2,38.0,89,86,83,30.58,27.25,4,0,4,0.04
2013-1-7,57.1,50.1,43.9,45.6,41.9,38.6,87,74,57,27.34,27.24,6,0,6,0.00
2013-1-8,73.1,59.2,49.9,61.5,52.3,44.2,88,78,66,27.31,27.21,2,0,2,0.00
2013-1-9,74.2,66.8,60.7,68.4,62.6,57.2,92,86,79,29.35,27.23,4,0,4,0.00
2013-1-10,78.1,68.2,60.1,69.2,63.5,57.0,95,85,66,29.35,29.27,9,0,9,0.02
2013-1-11,76.5,66.1,57.2,66.3,60.7,54.1,92,83,66,29.28,29.17,10,1,10,0.00
2013-1-12,75.8,62.5,52.2,68.0,58.3,49.7,94,86,73,29.22,29.11,13,0,13,0.00
2013-1-13,74.3,63.9,57.4,65.8,59.8,54.9,94,87,73,29.17,29.07,13,0,13,0.00
2013-1-14,76.5,64.7,57.8,67.2,59.9,54.7,95,85,65,29.22,29.11,15,1,15,0.00
2013-1-15,75.8,64.0,54.7,66.2,59.5,51.9,94,85,69,29.17,29.08,13,1,13,0.00
2013-1-16,74.3,67.2,63.2,68.0,64.0,61.2,94,90,78,29.11,29.01,11,1,11,0.13
2013-1-17,66.8,55.8,43.0,64.8,48.8,33.0,95,78,57,29.25,28.96,16,2,16,0.02
2013-1-18,60.7,48.2,40.3,42.3,36.3,32.4,85,65,41,30.35,29.24,5,0,5,0.00
2013-1-19,69.8,52.7,38.9,51.0,41.6,31.7,77,66,49,30.33,30.14,6,0,6,0.00
2013-1-20,70.7,56.4,46.8,55.6,47.7,42.1,86,73,52,30.16,30.03,8,0,8,0.00
2013-1-21,66.8,51.7,40.9,48.5,42.5,37.7,89,72,46,30.11,30.00,7,0,7,0.00
2013-1-22,61.4,47.7,36.5,40.0,34.8,28.5,82,63,37,30.27,30.07,5,0,8,0.00
2013-1-23,63.1,45.1,30.8,42.6,34.3,26.1,83,67,45,30.36,30.23,3,0,3,0.00
2013-1-24,73.3,53.4,39.5,53.6,43.3,35.2,89,70,43,30.26,30.16,8,0,8,0.00
2013-1-25,68.7,55.3,46.2,55.3,48.0,41.1,86,77,61,30.27,30.13,8,0,8,0.00
2013-1-26,75.7,59.1,46.7,61.7,52.2,43.7,92,79,56,30.18,30.09,6,0,6,0.00
2013-1-27,74.4,60.5,49.2,58.5,52.4,46.2,89,75,56,30.27,30.17,5,0,5,0.00
2013-1-28,73.5,60.5,50.1,63.0,54.4,46.2,88,80,68,30.28,30.18,8,0,8,0.00
2013-1-29,76.0,64.0,56.2,65.2,59.3,52.8,92,85,67,30.18,29.98,10,1,11,0.00
2013-1-30,69.0,64.0,54.5,64.9,60.7,47.6,92,89,77,29.99,29.66,14,2,14,0.61
2013-1-31,60.1,47.6,34.7,48.2,35.6,29.0,81,64,40,30.21,29.89,7,1,14,0.00
2013-2-1,62.6,44.5,31.3,43.1,34.4,27.7,87,69,46,30.29,30.20,8,0,8,0.00
2013-2-2,61.9,43.1,29.3,35.5,30.2,23.9,83,63,35,30.31,30.11,7,0,7,0.00
2013-2-3,69.7,49.8,36.9,44.0,36.8,32.3,90,65,32,30.16,30.02,8,0,8,0.00
2013-2-4,62.8,48.3,34.2,48.5,40.1,30.5,87,74,51,30.06,29.96,4,0,4,0.00
2013-2-5,63.2,56.1,51.1,58.6,52.5,47.2,93,87,79,30.01,29.93,6,0,6,0.06
2013-2-6,71.3,61.1,55.4,62.7,56.3,52.9,94,85,69,30.07,29.96,5,0,5,0.02
2013-2-7,67.0,61.8,56.3,65.0,59.3,52.8,95,92,86,30.01,29.71,11,1,11,0.14
2013-2-8,70.8,59.5,53.9,60.4,55.8,51.7,94,88,69,30.06,29.86,9,0,9,0.00
2013-2-9,67.9,54.4,44.9,53.6,46.5,41.9,95,77,46,30.19,30.06,4,0,4,0.00
2013-2-10,72.0,58.3,45.0,60.4,51.9,41.2,88,80,64,30.18,30.04,12,1,12,0.00
2013-2-11,69.3,64.5,61.4,64.8,61.9,59.1,97,92,84,30.11,29.99,9,0,9,0.00
2013-2-12,74.8,67.0,62.4,71.0,65.7,61.4,98,96,87,29.99,29.78,11,1,11,0.04
2013-2-13,74.5,67.8,52.0,69.7,62.5,46.5,96,83,67,29.95,29.73,14,1,14,0.00
2013-2-14,52.0,47.8,37.9,49.8,44.0,35.2,100,87,75,30.06,29.90,6,0,6,0.04
2013-2-15,68.7,48.0,31.8,50.3,39.2,29.8,96,75,43,30.07,29.93,5,0,5,0.00
2013-2-16,62.1,47.6,34.2,45.9,36.5,23.3,87,67,41,30.14,29.90,14,1,14,0.00
2013-2-17,56.3,38.8,25.0,31.2,24.9,19.8,83,60,33,30.31,30.14,7,0,7,0.00
2013-2-18,62.4,42.0,27.5,36.7,28.7,23.6,87,63,33,30.33,30.14,9,1,9,0.00
2013-2-19,68.9,53.6,36.1,64.7,49.7,29.1,93,86,75,30.14,29.94,12,1,12,0.00
2013-2-20,65.5,49.1,37.2,47.5,38.2,32.1,93,70,39,30.14,30.01,6,0,6,0.00
2013-2-21,71.2,53.2,34.5,58.5,44.7,31.0,89,74,50,30.08,29.93,8,0,8,0.00
2013-2-22,66.7,63.2,56.7,64.6,61.8,53.9,98,96,90,29.98,29.89,8,0,8,2.66
2013-2-23,77.0,68.4,63.5,71.9,66.9,62.8,98,95,83,29.89,29.77,11,1,11,0.16
2013-2-24,73.8,63.4,57.9,62.9,59.8,56.9,98,89,63,29.94,29.81,6,0,6,0.39
2013-2-25,62.4,58.8,56.5,62.0,58.0,55.5,99,98,96,29.86,29.64,7,1,7,3.89
2013-2-26,75.0,64.4,50.2,66.2,57.3,46.6,99,80,50,29.81,29.44,17,2,17,0.63
2013-2-27,66.6,54.3,44.4,49.4,45.4,41.0,95,74,51,29.94,29.81,8,0,8,0.00
2013-2-28,69.6,54.0,41.4,49.2,41.8,37.5,93,66,39,29.94,29.84,9,0,9,0.00
2013-3-1,56.5,47.9,38.1,38.7,36.1,33.0,82,64,50,29.99,29.91,8,0,8,0.00
2013-3-2,57.4,42.4,32.2,37.0,31.5,25.7,89,68,43,30.03,29.91,12,0,12,0.00
2013-3-3,54.3,42.0,32.4,34.6,30.1,25.2,80,64,43,30.10,29.97,8,1,8,0.00
2013-3-4,65.7,44.6,28.2,39.4,31.9,24.4,87,64,37,30.16,30.06,9,0,9,0.00
2013-3-5,70.5,58.2,40.1,61.1,52.5,34.3,93,81,67,30.06,29.87,13,1,13,0.11
2013-3-6,62.8,49.9,39.6,53.1,37.3,31.8,90,64,39,30.13,29.95,12,1,12,0.00
2013-3-7,68.0,47.7,31.6,42.6,36.0,28.0,88,66,38,30.21,30.10,9,0,9,0.00
2013-3-8,74.8,52.6,33.6,47.6,39.1,30.8,90,65,31,30.20,30.08,6,0,6,0.00
2013-3-9,73.0,54.9,39.0,48.0,41.0,35.3,88,62,35,30.20,30.10,5,0,5,0.00
2013-3-10,75.9,60.8,49.3,57.4,50.2,40.9,86,69,50,30.11,30.02,12,1,12,0.00
2013-3-11,73.0,61.3,50.4,62.5,56.5,46.8,96,84,68,30.03,29.77,12,1,12,0.08
2013-3-12,66.2,56.8,46.8,62.5,50.3,41.7,97,80,53,30.04,29.75,16,1,16,0.04
2013-3-13,73.2,54.0,38.1,49.6,41.6,35.5,92,67,38,30.18,30.04,10,1,10,0.00
2013-3-14,66.4,49.7,34.7,38.5,33.9,29.0,80,57,32,30.30,30.17,8,1,8,0.00
2013-3-15,77.7,52.8,34.3,50.1,39.1,29.5,85,62,37,30.23,30.09,9,0,9,0.00
2013-3-16,82.8,59.6,41.9,62.8,50.7,38.9,93,74,48,30.12,29.96,11,1,11,0.00
2013-3-17,69.6,59.1,51.6,62.9,55.8,48.9,96,89,77,30.03,29.89,10,0,10,0.00
2013-3-18,78.4,66.0,55.9,70.1,62.8,54.8,97,90,71,29.91,29.76,0,0,17,0.00
2013-3-19,82.4,66.6,55.1,68.4,60.5,54.1,98,82,58,29.93,29.78,0,0,8,0.00
2013-3-20,74.2,60.8,47.7,56.3,46.3,39.6,92,61,39,29.93,29.77,0,0,6,0.00
2013-3-21,72.1,53.2,36.8,43.3,37.0,31.9,83,58,30,29.90,29.79,0,0,11,0.00
2013-3-22,73.7,54.9,43.0,43.7,37.5,32.2,79,55,32,29.92,29.80,0,0,8,0.00
2013-3-23,66.8,60.7,54.9,64.8,55.9,44.3,97,85,59,29.85,29.61,0,0,7,0.00
2013-3-24,88.0,73.1,63.7,77.7,65.9,55.6,99,81,49,29.62,29.41,0,0,11,0.00
2013-3-25,68.6,55.8,40.5,55.6,37.4,31.3,73,52,32,30.00,29.62,0,0,19,0.00
2013-3-26,61.3,47.4,31.9,36.1,31.1,24.2,74,54,37,30.19,30.00,0,0,14,0.00
2013-3-27,67.2,46.8,28.3,39.3,32.0,24.0,84,59,34,30.26,30.13,0,0,8,0.00
2013-3-28,72.9,51.7,30.0,46.6,36.9,25.8,86,61,34,30.23,30.12,0,0,6,0.00
2013-3-29,77.8,56.4,35.8,52.1,42.9,32.4,89,64,35,30.22,30.11,0,0,9,0.00
2013-3-30,76.3,58.1,39.6,62.0,49.1,36.7,93,73,50,30.15,30.01,0,0,10,0.00
2013-3-31,80.0,65.2,53.5,67.0,59.2,50.0,94,81,63,30.02,29.85,0,0,17,0.00
2013-4-1,86.7,69.8,56.8,69.4,60.5,52.7,95,75,47,29.91,29.80,0,0,9,0.00
2013-4-2,88.0,65.9,46.1,60.0,52.2,43.0,93,65,37,30.01,29.90,0,0,10,0.00
2013-4-3,70.2,60.5,49.5,66.3,56.5,46.2,96,86,74,29.95,29.77,0,0,5,0.00
2013-4-4,80.3,68.9,62.2,70.4,65.3,61.1,97,89,67,29.85,29.73,0,0,8,0.00
2013-4-5,66.4,59.1,50.7,63.1,54.8,46.3,96,86,69,29.97,29.72,0,0,7,0.00
2013-4-6,82.2,59.4,39.1,57.5,48.7,36.9,95,72,41,30.04,29.95,0,0,7,0.00
2013-4-7,82.8,64.6,49.1,65.2,55.9,46.0,92,75,53,30.07,29.97,0,0,8,0.00
2013-4-8,85.9,66.2,51.5,66.8,57.8,49.3,95,76,49,30.05,29.94,0,0,10,0.00
2013-4-9,86.8,68.1,52.7,68.9,59.5,50.6,95,76,52,30.06,29.95,0,0,9,0.00
2013-4-10,88.6,70.0,58.4,69.4,61.7,55.3,93,76,52,30.00,29.85,0,0,8,0.00
2013-4-11,76.3,69.1,59.6,71.9,65.9,57.6,95,90,86,29.86,29.63,0,0,11,0.00
2013-4-12,83.3,73.3,59.9,73.3,66.8,54.6,97,81,59,29.81,29.61,0,0,10,0.00
2013-4-13,90.1,66.2,47.0,63.1,53.8,44.0,92,67,36,29.93,29.81,0,0,6,0.00
2013-4-14,65.6,60.6,58.3,61.1,56.6,52.5,97,87,74,29.90,29.73,0,0,6,0.00
2013-4-15,84.2,68.7,54.7,74.1,64.4,54.0,98,87,69,29.98,29.76,0,0,3,0.00
2013-4-16,94.5,74.6,60.1,74.2,66.8,58.4,96,79,51,30.05,29.95,0,0,4,0.00
2013-4-17,85.6,73.0,61.9,72.0,66.1,59.9,94,79,61,30.07,29.96,0,0,5,0.00
2013-4-18,83.5,71.5,59.4,71.9,65.1,57.4,95,81,63,29.96,29.85,0,0,8,0.00
2013-4-19,78.8,67.6,55.8,75.8,65.7,53.4,97,94,90,29.96,29.78,0,0,12,0.00
2013-4-20,78.3,57.4,47.2,55.3,49.0,44.5,97,77,44,30.08,29.96,0,0,9,0.00
2013-4-21,83.7,60.8,41.3,64.6,53.1,39.3,95,77,52,30.09,29.99,0,0,3,0.00
2013-4-22,71.0,63.8,57.1,62.6,59.3,54.7,93,85,73,30.06,29.98,0,0,8,0.00
2013-4-23,80.8,65.2,48.8,65.8,58.0,46.6,95,79,58,30.05,29.95,0,0,4,0.00
2013-4-24,88.0,67.3,52.0,69.1,60.8,49.9,95,81,52,30.07,29.97,0,0,8,0.00
2013-4-25,87.4,68.0,58.2,75.5,64.0,56.3,95,88,66,30.14,30.00,0,0,2,0.00
2013-4-26,93.9,68.9,49.1,62.1,56.3,46.6,94,69,33,30.18,30.08,0,0,0,0.00
2013-4-27,91.6,70.4,55.9,71.1,61.5,53.1,90,74,49,30.14,30.01,0,0,7,0.00
2013-4-28,87.3,70.6,57.1,70.8,63.1,54.4,92,78,55,30.03,29.86,0,0,10,0.00
2013-4-29,85.4,68.1,58.8,72.6,63.5,56.6,96,86,60,29.90,29.83,0,0,9,0.00
2013-4-30,94.1,70.6,56.6,76.2,65.3,55.6,98,85,54,29.91,29.82,0,0,5,0.00
2013-5-1,72.4,67.6,62.7,67.7,64.9,59.2,100,91,83,29.94,29.83,0,0,5,0.00
2013-5-2,82.9,68.6,59.2,72.3,64.5,57.8,96,87,67,29.91,29.79,0,0,6,0.00
2013-5-3,70.8,66.3,61.0,67.9,63.6,60.0,97,91,82,29.80,29.68,0,0,7,0.02
2013-5-4,74.2,64.2,56.8,69.7,60.8,51.5,93,88,82,29.74,29.65,0,0,8,0.02
2013-5-5,80.3,60.2,44.2,61.4,52.9,41.8,93,78,51,29.79,29.71,0,0,7,0.00
2013-5-6,77.9,59.7,42.3,56.2,49.4,39.4,90,70,46,29.90,29.78,0,0,7,0.00
2013-5-7,85.0,67.5,52.0,64.4,56.7,49.2,92,70,47,29.93,29.81,0,0,7,0.00
2013-5-8,86.8,67.2,51.2,67.6,59.6,48.5,93,77,49,30.02,29.90,0,0,9,0.00
2013-5-9,94.3,71.0,58.3,71.7,62.3,56.4,94,76,46,30.05,29.96,0,0,7,0.00
2013-5-10,88.3,69.6,54.1,69.4,61.5,51.6,94,77,51,30.02,29.86,0,0,7,0.00
2013-5-11,83.8,69.7,59.5,74.6,66.2,57.2,95,89,70,29.94,29.85,0,0,5,0.19
2013-5-12,88.0,71.6,61.2,71.1,64.4,57.6,97,80,55,29.95,29.84,0,0,6,0.00
2013-5-13,87.6,66.4,51.8,58.1,50.6,43.8,83,60,33,30.09,29.94,0,0,8,0.00
2013-5-14,92.1,65.0,44.0,58.9,49.8,40.2,87,61,32,30.17,30.04,0,0,3,0.00
2013-5-15,87.8,62.8,49.0,63.6,53.4,45.7,89,73,44,30.12,29.98,0,0,14,0.00
2013-5-16,89.3,69.9,54.7,70.0,61.6,51.9,90,76,51,30.02,29.92,0,0,6,0.00
2013-5-17,96.4,73.2,58.9,71.9,63.0,57.0,95,73,44,29.99,29.91,0,0,8,0.00
2013-5-18,90.4,72.0,57.4,72.6,65.0,54.9,93,79,54,30.02,29.91,0,0,7,0.00
2013-5-19,90.1,71.0,62.1,71.6,65.2,59.9,94,83,54,29.98,29.89,0,0,2,0.00
2013-5-20,99.2,77.4,63.5,78.6,69.3,61.3,94,77,50,29.98,29.85,0,0,6,0.00
2013-5-21,101.0,78.1,63.6,76.0,68.8,61.4,93,75,41,29.93,29.79,0,0,6,0.00
2013-5-22,93.2,75.8,62.1,76.5,68.3,59.6,93,78,56,29.89,29.77,0,0,6,0.00
2013-5-23,98.2,75.1,68.2,73.2,68.3,65.5,94,81,43,29.91,29.81,0,0,3,0.00
2013-5-24,104.4,78.7,65.1,71.2,64.1,53.7,92,64,34,30.02,29.86,0,0,7,0.00
2013-5-25,94.3,65.6,53.2,65.4,55.6,47.4,81,70,38,30.13,30.01,0,0,0,0.00
2013-5-26,99.8,75.8,58.7,73.7,64.4,54.7,86,69,43,30.12,30.02,0,0,7,0.00
2013-5-27,89.4,68.6,60.8,72.7,63.2,57.8,90,84,54,30.09,30.03,0,0,4,0.00
2013-5-28,103.4,84.8,66.0,76.1,69.9,62.2,88,62,42,30.06,29.95,0,0,7,0.00
2013-5-29,104.3,80.9,67.8,79.6,71.8,64.8,92,75,46,30.04,29.93,0,0,10,0.00
2013-5-30,101.8,83.7,70.4,82.8,74.1,68.1,93,73,51,30.02,29.91,0,0,9,0.02
2013-5-31,105.6,82.1,68.9,79.6,72.4,66.5,93,73,43,30.02,29.90,0,0,9,0.00
2013-6-1,79.0,76.4,73.8,70.7,69.7,68.8,85,79,75,29.94,29.91,0,0,0,0.00
2013-6-2,106.3,87.8,75.0,80.8,75.9,71.7,92,69,45,29.91,29.75,0,0,7,0.00
2013-6-3,91.0,79.5,71.1,82.7,74.9,68.7,94,86,69,29.84,29.74,0,0,5,0.06
2013-6-4,95.6,79.6,70.9,84.1,75.3,69.2,95,87,66,29.89,29.81,0,0,10,1.14
2013-6-5,89.4,77.6,72.1,81.3,74.8,70.7,96,91,74,29.90,29.78,0,0,8,1.59
2013-6-6,74.3,73.1,71.4,73.6,72.1,70.6,98,97,94,29.81,29.48,0,0,8,1.35
2013-6-7,101.6,79.5,66.8,83.8,74.3,66.1,99,86,55,29.81,29.61,0,0,13,0.00
2013-6-8,76.8,76.2,75.6,74.7,74.0,73.1,95,93,90,29.81,29.80,0,0,2,0.00
2013-6-9,87.6,79.5,74.9,79.8,75.1,71.7,97,86,77,30.00,29.91,0,0,7,0.02
2013-6-10,99.9,81.6,71.7,82.0,76.1,70.3,96,85,56,29.98,29.89,0,0,12,0.00
2013-6-11,106.5,82.3,71.7,85.4,76.3,70.0,96,83,51,29.99,29.89,0,0,9,0.00
2013-6-12,99.9,83.3,71.3,85.2,76.8,69.5,96,82,59,29.97,29.87,0,0,7,0.02
2013-6-13,95.8,86.5,77.7,85.6,79.5,75.6,95,80,65,29.91,29.73,0,0,9,0.00
2013-6-14,108.7,85.6,76.2,88.4,78.9,73.8,94,81,51,29.80,29.70,0,0,7,0.00
2013-6-15,104.3,85.7,75.0,82.8,76.2,73.0,94,74,51,29.95,29.79,0,0,6,0.00
2013-6-16,104.4,82.3,70.3,83.8,75.1,67.3,90,79,51,29.99,29.90,0,0,6,0.00
2013-6-17,107.4,85.6,71.4,83.5,76.1,69.4,95,75,47,29.95,29.86,0,0,8,0.00
2013-6-18,99.3,81.5,69.4,84.7,73.9,67.2,95,79,56,29.92,29.81,0,0,13,0.27
2013-6-19,110.2,87.0,74.3,83.5,77.1,71.2,95,73,43,29.93,29.81,0,0,8,0.00
2013-6-20,92.1,77.9,71.9,81.0,73.9,69.7,97,88,66,30.00,29.88,0,0,5,1.59
2013-6-21,102.0,82.2,71.9,83.9,76.4,70.9,98,83,56,30.04,29.95,0,0,2,1.10
2013-6-22,99.3,78.9,68.9,82.9,74.7,68.1,98,88,56,30.02,29.93,0,0,9,0.00
2013-6-23,75.0,74.5,74.1,73.0,72.6,72.3,95,94,94,29.98,29.97,0,0,0,0.00
2013-6-24,91.9,84.8,75.4,82.6,78.8,73.9,97,82,72,30.08,29.99,0,0,6,0.00
2013-6-25,89.1,78.4,70.4,82.4,75.8,69.0,96,92,79,30.04,29.94,0,0,3,0.06
2013-6-26,111.9,86.4,71.2,85.4,77.7,69.9,97,77,43,29.99,29.88,0,0,3,0.00
2013-6-27,105.6,83.7,71.2,82.9,76.9,69.5,96,81,48,29.92,29.79,0,0,4,0.00
2013-6-28,97.9,83.0,74.5,82.7,77.1,72.8,96,83,60,29.84,29.67,0,0,7,0.17
2013-6-29,88.9,77.4,69.5,80.5,74.6,68.4,98,92,73,29.71,29.61,0,0,6,0.26
2013-6-30,87.3,79.5,72.5,82.9,76.5,71.1,98,91,79,29.70,29.61,0,0,10,1.20
2013-7-1,91.3,78.8,71.0,82.3,75.8,70.2,98,91,73,29.83,29.66,0,0,6,0.06
2013-7-2,85.5,78.4,74.4,82.0,76.7,73.3,98,95,89,29.97,29.81,0,0,2,0.35
2013-7-3,84.7,76.3,70.9,82.6,75.5,70.5,99,98,90,29.98,29.90,0,0,8,1.47
2013-7-4,78.5,75.1,72.9,78.1,74.6,72.4,99,99,98,30.02,29.91,0,0,23,0.04
2013-7-5,95.8,79.3,70.9,84.2,76.3,70.5,100,92,65,30.02,29.95,0,0,9,0.00
2013-7-6,85.0,78.5,71.0,81.8,76.3,70.2,99,94,84,30.02,29.93,0,0,7,0.00
2013-7-7,101.3,80.7,70.1,84.4,76.7,69.3,99,89,57,30.02,29.95,0,0,8,0.00
2013-7-8,98.9,84.0,75.5,84.6,78.9,74.1,97,85,60,30.07,30.00,0,0,5,0.00
2013-7-9,104.7,83.3,70.2,83.9,76.6,69.1,97,82,50,30.07,29.96,0,0,2,0.00
2013-7-10,96.7,79.1,71.5,83.3,74.7,69.2,94,87,61,30.00,29.88,0,0,5,0.00
2013-7-11,92.1,77.1,70.7,80.9,74.1,68.7,95,91,67,29.90,29.79,0,0,6,0.00
2013-7-12,88.0,77.5,69.8,81.0,74.6,67.5,96,91,78,29.85,29.76,0,0,6,0.00
2013-7-13,86.8,74.3,67.4,81.1,72.2,66.0,96,94,81,29.88,29.73,0,0,1,0.00
2013-7-14,101.1,81.2,71.4,82.7,75.7,70.0,97,85,54,29.98,29.83,0,0,7,0.00
2013-7-15,95.2,79.3,72.2,79.1,74.7,69.8,95,87,58,30.05,29.96,0,0,3,0.82
2013-7-16,95.6,80.1,72.8,84.0,75.9,71.4,96,88,62,30.09,30.00,0,0,5,0.00
2013-7-17,104.2,82.1,69.5,81.3,75.3,67.8,96,82,48,30.11,29.86,0,0,7,0.00
2013-7-18,103.4,82.3,71.0,82.1,75.9,69.4,96,83,50,29.93,29.82,0,0,5,0.00
2013-7-19,82.3,77.6,72.8,79.0,75.3,71.1,95,93,88,29.90,29.81,0,0,6,0.00
2013-7-20,90.3,77.3,72.9,84.6,75.6,71.6,96,95,81,29.89,29.78,0,0,5,0.00
2013-7-21,92.5,82.2,71.4,84.5,77.8,70.1,100,87,72,29.88,29.79,0,0,8,0.00
2013-7-22,90.2,77.0,71.6,82.5,74.5,69.7,96,92,76,29.93,29.81,0,0,9,0.00
2013-7-23,88.4,78.9,72.4,83.9,76.5,71.1,96,93,85,29.83,29.71,0,0,8,0.00
2013-7-24,94.3,77.6,69.6,85.6,75.1,68.3,96,92,72,29.71,29.65,0,0,7,0.30
2013-7-25,90.4,78.5,71.0,83.8,76.2,69.7,96,93,79,29.76,29.65,0,0,9,0.25
2013-7-26,102.2,83.9,71.8,84.9,78.2,70.5,96,84,54,29.81,29.73,0,0,4,0.00
2013-7-27,96.5,80.7,72.7,83.5,76.3,70.5,94,87,64,29.79,29.69,0,0,6,0.53
2013-7-28,92.2,80.1,72.8,84.6,76.6,71.2,96,90,70,29.83,29.72,0,0,7,0.49
2013-7-29,97.6,82.0,71.3,85.8,77.7,69.7,95,87,66,29.93,29.78,0,0,5,0.00
2013-7-30,103.6,84.0,72.1,85.8,77.8,70.2,95,83,55,29.97,29.85,0,0,5,0.00
2013-7-31,103.9,82.4,72.3,84.2,77.0,70.1,94,85,52,29.91,29.79,0,0,6,0.22
2013-8-1,92.1,81.1,72.1,83.8,77.2,70.5,96,89,72,29.81,29.71,0,0,6,0.00
2013-8-2,100.6,84.1,71.7,84.5,77.7,69.7,94,82,59,29.82,29.72,0,0,5,0.00
2013-8-3,96.2,80.7,72.8,84.2,77.3,70.7,95,90,67,29.86,29.77,0,0,5,0.63
2013-8-4,104.5,85.4,74.1,86.2,79.9,72.8,96,85,55,29.86,29.73,0,0,3,0.00
2013-8-5,95.8,83.4,73.5,85.6,79.1,71.5,94,88,70,29.81,29.69,0,0,4,0.04
2013-8-6,102.7,85.4,73.8,84.8,78.8,71.9,95,82,52,29.78,29.68,0,0,3,0.17
2013-8-7,91.3,81.7,74.2,85.7,79.0,72.9,96,92,80,29.79,29.70,0,0,3,0.16
2013-8-8,99.5,83.5,75.1,85.0,78.9,73.8,96,87,63,29.80,29.72,0,0,6,0.00
2013-8-9,102.7,85.1,74.1,85.2,79.0,72.2,95,83,55,29.86,29.75,0,0,6,0.00
2013-8-10,97.5,82.8,74.1,85.1,78.1,72.2,95,87,63,29.92,29.82,0,0,6,0.24
2013-8-11,104.8,85.1,73.2,85.1,78.3,71.4,95,82,52,29.95,29.86,0,0,5,0.00
2013-8-12,106.3,85.5,72.7,85.2,78.1,70.5,94,80,50,29.92,29.79,0,0,7,0.00
2013-8-13,100.5,83.8,72.1,85.5,77.9,69.9,94,83,59,29.84,29.72,0,0,6,0.00
2013-8-14,98.5,81.8,73.7,85.1,77.8,71.5,94,88,62,29.76,29.67,0,0,6,0.11
2013-8-15,94.1,81.0,72.0,84.1,77.4,70.3,95,90,70,29.79,29.71,0,0,6,0.67
2013-8-16,87.5,78.0,72.3,83.4,75.9,70.7,96,94,85,29.83,29.73,0,0,6,0.86
2013-8-17,88.1,76.7,70.5,83.8,74.8,69.2,96,94,83,29.88,29.77,0,0,7,0.85
2013-8-18,90.7,79.3,71.5,83.8,75.6,70.2,96,89,73,29.89,29.80,0,0,2,0.00
2013-8-19,94.8,81.9,73.8,80.0,76.0,71.0,91,83,61,29.86,29.76,0,0,4,0.00
2013-8-20,98.7,82.5,73.5,79.9,75.3,70.0,90,80,52,29.89,29.78,0,0,9,0.00
2013-8-21,96.6,79.2,70.4,79.2,73.1,67.0,90,82,54,29.93,29.85,0,0,5,0.13
2013-8-22,81.4,75.2,72.6,78.0,72.2,69.5,91,90,85,29.93,29.81,0,0,3,1.63
2013-8-23,84.5,77.2,68.8,78.9,73.4,66.4,92,88,81,29.85,29.76,0,0,2,0.00
2013-8-24,86.7,79.0,72.1,77.8,74.0,69.0,91,85,73,29.92,29.80,0,0,0,0.00
2013-8-25,88.7,79.6,73.0,77.0,73.8,69.9,90,83,66,30.00,29.91,0,0,2,0.06
2013-8-26,92.6,78.5,67.5,75.1,70.6,64.4,90,78,52,29.99,29.86,0,0,0,0.00
2013-8-27,97.7,80.3,70.2,77.4,72.4,66.7,90,78,51,29.90,29.79,0,0,2,0.00
2013-8-28,91.1,79.3,71.2,79.4,73.8,67.8,89,83,65,29.85,29.76,0,0,6,0.26
2013-8-29,98.9,81.5,70.5,78.2,73.5,67.4,90,78,48,29.83,29.72,0,0,0,0.00
2013-8-30,99.4,81.4,72.9,81.0,74.5,69.1,90,80,53,29.78,29.64,0,0,6,2.16
2013-8-31,91.9,79.8,70.1,79.5,74.3,67.3,91,84,64,29.74,29.65,0,0,7,0.02
2013-9-1,94.3,82.0,72.3,79.3,75.2,68.9,90,80,59,29.75,29.66,0,0,8,0.00
2013-9-2,90.7,79.7,73.2,79.2,74.4,69.8,90,84,68,29.78,29.69,0,0,0,0.00
2013-9-3,92.8,80.4,71.2,80.1,74.4,68.1,90,82,63,29.79,29.69,0,0,6,0.03
2013-9-4,96.2,81.5,70.8,80.0,74.4,67.7,90,80,58,29.87,29.76,0,0,3,0.00
2013-9-5,95.0,82.3,71.1,80.0,74.4,67.5,90,78,56,29.90,29.80,0,0,2,0.00
2013-9-6,93.4,80.1,72.4,79.1,73.9,68.6,89,82,60,29.86,29.75,0,0,3,0.04
2013-9-7,94.0,78.9,68.6,74.8,70.9,65.5,90,78,51,29.85,29.73,0,0,0,0.00
2013-9-8,95.4,78.9,66.7,76.2,69.8,63.0,89,75,46,29.79,29.70,0,0,0,0.00
2013-9-9,93.4,79.6,67.8,77.2,72.0,64.0,89,78,55,29.84,29.74,0,0,0,0.00
2013-9-10,90.6,79.6,67.8,75.4,71.5,64.1,89,77,55,29.93,29.83,0,0,0,0.00
2013-9-11,94.9,79.0,68.2,75.2,70.4,64.3,89,76,50,29.92,29.82,0,0,0,0.00
2013-9-12,93.4,80.0,69.1,75.4,71.3,65.2,89,76,50,29.85,29.68,0,0,0,0.00
2013-9-13,95.4,80.8,68.5,75.9,71.4,64.5,89,74,45,29.72,29.58,0,0,0,0.00
2013-9-14,92.4,80.1,69.4,78.6,73.1,65.1,88,80,56,29.77,29.62,0,0,0,0.02
2013-9-15,92.7,81.1,69.5,79.8,73.7,66.1,90,79,59,29.86,29.76,0,0,0,0.04
2013-9-16,94.7,81.2,69.3,78.7,73.6,65.8,90,79,55,29.89,29.76,0,0,0,0.00
2013-9-17,92.1,81.1,70.4,78.8,72.9,67.0,89,77,55,29.87,29.77,0,0,0,0.00
2013-9-18,86.9,78.4,71.2,75.7,71.8,66.5,86,80,64,29.89,29.80,0,0,0,0.18
2013-9-19,90.3,78.0,67.1,74.4,70.1,63.4,88,77,56,29.89,29.79,0,0,0,0.00
2013-9-20,89.3,78.1,68.7,73.3,69.4,65.1,89,76,49,29.84,29.69,0,0,0,0.00
2013-9-21,86.4,76.4,69.9,76.8,71.7,66.2,90,85,70,29.71,29.54,0,0,0,0.69
2013-9-22,80.6,76.1,72.7,76.5,72.9,69.7,91,90,85,29.61,29.51,0,0,0,0.72
2013-9-23,84.9,77.7,72.5,77.8,73.8,69.7,92,88,78,29.73,29.59,0,0,1,0.34
2013-9-24,85.8,79.5,73.9,77.2,74.7,70.8,90,85,73,29.70,29.61,0,0,0,0.00
2013-9-25,88.0,76.8,69.1,80.3,73.1,66.3,91,88,78,29.66,29.50,0,0,10,0.25
2013-9-26,81.7,75.2,69.2,73.1,70.3,65.2,91,85,71,29.73,29.55,0,0,5,0.00
2013-9-27,84.3,72.2,61.9,68.3,63.2,58.5,90,75,47,29.83,29.72,0,0,0,0.00
2013-9-28,82.9,72.4,62.4,69.1,64.4,58.5,88,77,59,29.87,29.79,0,0,4,0.02
2013-9-29,85.8,73.5,62.0,71.8,66.1,58.1,88,78,58,29.84,29.72,0,0,0,0.00
2013-9-30,78.4,72.6,66.0,71.7,68.1,62.0,90,86,78,29.81,29.72,0,0,0,0.00
2013-10-1,84.7,73.9,64.9,73.9,68.5,61.9,90,83,67,29.87,29.78,0,0,0,0.00
2013-10-2,87.8,76.7,66.9,72.2,68.5,62.9,88,76,55,29.88,29.80,0,0,1,0.00
2013-10-3,86.7,75.0,65.3,73.7,68.6,61.7,89,81,62,29.89,29.80,0,0,1,0.00
2013-10-4,88.8,77.7,68.0,75.3,70.9,64.7,89,80,60,29.90,29.80,0,0,2,0.00
2013-10-5,86.5,76.4,69.6,74.8,70.9,66.2,90,83,65,29.86,29.76,0,0,4,0.00
2013-10-6,83.4,76.5,70.9,75.4,72.1,67.8,90,86,74,29.79,29.61,0,0,4,0.04
2013-10-7,86.0,77.7,72.1,77.8,73.5,69.3,91,87,74,29.66,29.53,0,0,0,0.00
2013-10-8,86.1,75.5,63.3,74.2,68.8,58.7,88,80,64,29.80,29.63,0,0,0,0.00
2013-10-9,75.3,70.0,64.6,68.4,63.5,59.0,86,80,71,29.91,29.79,0,0,1,0.00
2013-10-10,83.9,69.3,57.4,68.0,61.4,54.2,90,78,49,29.89,29.78,0,0,0,0.00
2013-10-11,85.2,71.7,58.8,68.7,63.1,55.2,89,76,51,29.85,29.75,0,0,4,0.00
2013-10-12,86.2,71.0,58.8,69.3,62.7,54.9,88,76,48,29.86,29.77,0,0,6,0.00
2013-10-13,86.0,70.7,57.7,68.6,62.3,53.9,88,76,49,29.91,29.80,0,0,0,0.00
2013-10-14,80.7,71.3,61.5,68.9,63.8,57.9,88,78,60,29.90,29.79,0,0,0,0.00
2013-10-15,82.4,71.9,61.4,69.4,64.7,57.8,89,78,62,29.86,29.74,0,0,1,1.57
2013-10-16,85.5,74.1,66.0,71.1,66.6,61.6,86,78,58,29.81,29.71,0,0,0,0.00
2013-10-17,86.1,73.4,61.5,74.0,67.3,57.9,89,81,65,29.79,29.68,0,0,0,0.47
2013-10-18,85.7,75.0,64.0,74.6,69.1,60.4,89,82,64,29.78,29.69,0,0,0,0.00
2013-10-19,79.4,73.1,68.5,73.4,69.0,65.1,89,87,81,29.74,29.68,0,0,3,0.00
2013-10-20,75.0,70.2,63.7,68.0,64.0,58.8,88,81,69,29.80,29.71,0,0,0,0.00
2013-10-21,80.8,73.7,64.2,72.1,68.0,60.9,89,82,73,29.83,29.73,0,0,0,0.00
2013-10-22,72.6,70.9,67.8,69.5,67.7,64.4,91,89,87,29.78,29.63,0,0,0,0.00
2013-10-23,82.7,73.6,65.4,77.6,65.6,53.1,93,78,46,29.87,29.66,0,0,7,0.00
2013-10-24,89.0,72.1,60.1,72.8,63.6,49.6,90,76,43,29.99,29.86,0,0,0,0.00
2013-10-25,89.2,75.0,64.0,70.9,65.1,58.5,90,73,47,30.08,29.96,0,0,6,0.00
2013-10-26,87.7,70.5,55.0,68.1,60.9,50.9,89,74,45,30.07,29.93,0,0,0,0.00
2013-10-27,90.4,73.3,57.0,73.4,64.7,53.5,90,76,47,29.95,29.86,0,0,0,0.00
2013-10-28,93.4,76.3,65.1,77.3,68.4,57.3,91,78,49,30.01,29.88,0,0,0,0.00
2013-10-29,92.5,77.6,66.2,79.7,69.6,60.2,91,78,51,30.07,29.96,0,0,0,0.00
2013-10-30,92.7,79.6,69.3,81.3,72.1,61.6,90,79,51,30.05,29.92,0,0,0,0.00
2013-10-31,92.7,81.9,75.5,86.6,76.7,69.2,91,84,71,29.95,29.75,0,0,6,0.00
2013-11-1,92.2,84.0,75.5,89.2,80.1,72.0,92,88,79,29.75,29.55,0,0,8,0.00
2013-11-2,91.5,83.0,74.2,86.4,76.4,70.3,92,82,53,29.81,29.61,0,0,0,0.00
2013-11-3,85.9,75.3,62.7,70.4,64.3,58.7,90,71,42,29.95,29.80,0,0,4,0.00
2013-11-4,90.3,77.7,63.6,75.6,69.0,59.7,89,75,57,30.07,29.99,0,0,5,0.00
2013-11-5,91.2,81.2,71.3,77.7,71.6,64.9,81,73,62,30.07,29.95,0,0,6,0.00
2013-11-7,66.3,64.1,60.9,56.2,53.3,49.8,71,67,66,29.91,29.89,0,0,6,0.00
2013-11-8,68.7,57.1,47.1,49.8,44.6,38.3,81,64,44,30.00,29.91,0,0,4,0.00
2013-11-9,75.1,60.4,46.9,62.6,52.5,42.0,84,76,57,30.02,29.92,0,0,0,0.00
2013-11-10,76.9,65.0,54.7,64.2,57.4,50.9,89,77,56,30.01,29.91,0,0,3,0.00
2013-11-11,76.3,61.3,47.5,60.8,53.6,43.8,88,77,49,29.98,29.88,0,0,0,0.00
2013-11-12,73.3,61.9,50.4,62.0,52.7,44.3,88,73,48,30.03,29.85,0,0,6,0.00
2013-11-13,56.2,46.9,37.3,43.9,30.5,26.2,71,54,33,30.23,30.03,0,0,7,0.00
2013-11-14,68.7,52.6,36.6,52.5,41.5,26.9,76,66,53,30.19,29.99,0,0,6,0.59
2013-11-15,62.9,60.5,56.5,59.6,56.4,52.1,90,86,76,30.00,29.82,0,0,5,0.00
2013-11-16,74.0,66.1,57.4,67.3,61.9,54.8,91,86,76,29.94,29.84,0,0,3,0.00
2013-11-17,76.3,71.1,65.9,70.0,67.1,62.9,91,87,80,29.88,29.77,0,0,8,0.00
2013-11-18,75.2,72.6,68.5,72.3,69.8,65.3,91,91,89,29.80,29.70,0,0,4,0.00
2013-11-19,68.9,59.7,47.7,65.3,51.4,44.0,91,75,51,29.85,29.74,0,0,5,0.00
2013-11-20,69.4,62.3,55.3,60.1,54.2,47.2,80,75,70,29.98,29.81,0,0,5,0.00
2013-11-21,77.0,67.3,57.4,66.8,60.9,53.2,86,80,68,30.03,29.95,0,0,4,0.00
2013-11-22,78.0,69.9,64.0,70.7,65.5,60.5,89,86,74,30.05,29.92,0,0,4,0.06
2013-11-23,77.4,69.0,61.7,70.7,63.8,56.7,90,84,73,29.94,29.84,0,0,5,0.00
2013-11-24,62.9,55.9,48.7,56.7,41.1,34.2,80,58,45,30.13,29.92,0,0,7,0.00
2013-11-25,61.3,54.1,44.4,55.5,44.0,33.8,81,68,60,30.12,29.84,0,0,4,0.00
2013-11-26,71.5,66.6,60.4,68.7,63.2,55.6,91,89,82,29.85,29.44,0,0,11,0.04
2013-11-27,65.4,48.6,37.3,62.4,43.6,33.5,91,83,69,30.05,29.49,0,0,9,0.86
2013-11-28,52.1,40.2,29.1,37.2,32.9,25.7,87,76,52,30.22,30.05,0,0,3,5.46
2013-11-29,63.3,48.2,35.7,48.0,40.3,31.9,86,75,55,30.25,30.12,0,0,6,0.11
2013-11-30,69.4,53.7,40.4,57.1,47.3,36.5,86,79,65,30.18,30.04,0,0,4,0.00
2013-12-1,68.0,56.2,45.7,57.8,50.4,42.3,88,81,68,30.05,29.80,0,0,4,0.00
2013-12-2,69.4,57.6,50.3,58.5,52.1,47.1,89,82,61,29.80,29.61,0,0,5,0.00
2013-12-3,71.9,61.4,49.9,65.1,57.3,46.7,90,86,77,29.72,29.63,0,0,6,0.00
2013-12-4,76.3,68.6,61.5,69.5,64.5,58.8,91,87,75,29.86,29.71,0,0,8,0.00
2013-12-5,78.0,70.3,64.2,70.1,65.8,60.7,91,86,72,29.92,29.83,0,0,8,0.00
2013-12-6,77.9,69.1,62.5,70.6,65.0,59.2,91,87,76,29.94,29.85,0,0,8,0.00
2013-12-7,78.6,72.2,68.5,73.5,68.9,65.6,91,89,81,29.99,29.91,0,0,5,0.00
2013-12-8,77.0,70.0,66.0,71.6,66.2,62.7,91,88,78,30.00,29.89,0,0,6,0.00
2013-12-9,77.5,71.3,65.6,71.5,67.4,62.6,91,88,78,29.94,29.85,0,0,12,0.00
2013-12-10,77.4,66.5,49.8,74.3,61.4,44.9,91,84,68,30.07,29.82,0,0,8,2.34
2013-12-11,65.1,53.4,41.2,56.0,47.4,36.2,88,80,69,30.11,30.02,0,0,6,0.02
2013-12-12,62.4,51.7,38.4,49.7,40.8,32.8,89,69,38,30.18,30.03,0,0,7,1.61
2013-12-13,65.3,49.1,31.8,52.4,42.0,27.6,86,77,61,30.12,29.89,0,0,2,0.00
2013-12-14,69.5,62.8,55.2,65.3,59.4,51.1,91,89,84,29.89,29.65,0,0,10,0.04
2013-12-15,68.1,55.0,43.5,65.3,51.3,39.4,91,87,78,30.00,29.65,0,0,6,0.04
2013-12-16,59.1,45.5,33.4,45.3,39.0,30.4,90,79,53,30.05,29.98,0,0,5,0.00
2013-12-17,65.2,47.9,33.1,48.4,40.0,29.9,89,76,45,30.09,29.97,0,0,5,0.00
2013-12-18,62.7,48.5,37.2,44.8,38.4,33.9,88,71,40,30.12,30.00,0,0,7,0.00
2013-12-19,64.4,45.5,34.0,45.1,37.6,30.2,87,76,45,30.07,29.96,0,0,1,0.00
2013-12-20,72.8,64.0,40.8,62.2,57.3,37.2,89,79,68,29.97,29.89,0,0,6,0.00
2013-12-21,72.6,68.4,58.9,68.8,64.1,55.2,89,86,82,29.89,29.78,0,0,11,0.00
2013-12-22,73.2,70.6,66.1,69.6,67.2,63.0,91,89,86,29.88,29.79,0,0,9,0.00
2013-12-23,72.6,64.6,54.3,69.9,61.9,51.5,92,91,91,30.02,29.82,0,0,10,0.00
2013-12-24,58.0,48.4,37.9,51.5,40.0,33.5,91,74,48,30.16,30.01,0,0,11,0.00
2013-12-25,61.7,47.8,31.7,49.9,40.7,27.7,85,77,63,30.13,29.99,0,0,6,0.00
2013-12-26,52.8,51.2,46.6,48.4,47.0,43.2,89,85,82,30.07,29.98,0,0,3,0.00
2013-12-27,63.0,56.2,50.4,53.9,50.4,45.1,86,81,71,30.11,30.01,0,0,3,0.00
2013-12-28,70.3,62.2,52.3,66.9,55.8,44.7,90,80,74,30.07,29.68,0,0,10,0.00
2013-12-29,70.9,65.7,55.9,66.2,60.8,50.8,91,84,69,29.86,29.63,0,0,11,0.00
2013-12-30,63.1,54.9,43.0,53.1,48.8,39.9,89,80,61,30.02,29.85,0,0,4,0.00
2013-12-31,56.8,55.0,51.6,53.0,50.5,48.1,89,85,78,30.13,29.99,0,0,3,0.00
2014-1-1,58.0,54.6,48.6,54.8,50.8,44.5,90,87,85,30.09,29.86,0,0,0,0.00
2014-1-2,62.0,57.3,47.4,59.3,54.1,41.1,91,89,78,29.87,29.57,0,0,12,0.04